Change the Weather History Date:

Tuesday, November 12, 2013

  Actual Average Record
Temperature  
Mean Temperature 56 °F -  
Max Temperature 69 °F 66 °F 77 °F (2001)
Min Temperature 42 °F 47 °F 37 °F (2006)
Degree Days  
Heating Degree Days 10    
Growing Degree Days 6 (Base 50)    
Moisture  
Dew Point 53 °F    
Average Humidity 90    
Maximum Humidity 100    
Minimum Humidity 64    
Precipitation  
Precipitation 0.00 in 0.07 in - ()
Sea Level Pressure  
Sea Level Pressure 29.79 in    
Wind  
Wind Speed 4 mph ()    
Max Wind Speed 13 mph    
Max Gust Speed -    
Visibility 6.2 miles    
Events Rain    
Averages and records for this station are not official NWS values.
T = Trace of Precipitation, MM = Missing Value Source: Averaged Metar Reports

Daily Weather History Graph

Daily Weather History Graph

Search for Another Location

Airport or City:

Trip Planner

Search our weather history database for the weather conditions in past years. The results will help you decide how hot, cold, wet, or windy it might be!

Date:

Astronomy

Nov. 12, 2013 Rise Set
Actual Time 6:36 AM CET 4:51 PM CET
Civil Twilight 6:08 AM CET 5:19 PM CET
Nautical Twilight 5:37 AM CET 5:51 PM CET
Astronomical Twilight 5:06 AM CET 6:21 PM CET
Moon 1:50 PM CET (11/12) 1:14 AM CET (11/12)
Length of Visible Light 11h 10m
Length of Day
10h 15m
Waxing Gibbous, 74% of the Moon is Illuminated
Nov 12
Waxing Gibbous
Nov 17
Full
Nov 25
Last Quarter
Dec 3
New
Dec 9
First Quarter

Hourly Weather History & Observations

Time (CET) Temp. Windchill Dew Point Humidity Pressure Visibility Wind Dir Wind Speed Gust Speed Precip Events Conditions
12:55 AM 50.0 °F - 50.0 °F 100% 29.71 in 6.2 mi WNW 2.3 mph - N/A   Scattered Clouds
1:00 AM 50 °F - 50 °F 100% 29.73 in 6 mi WNW 2.3 mph - -   Partly Cloudy
1:55 AM 48.2 °F - 48.2 °F 100% 29.71 in 6.2 mi SW 2.3 mph - N/A   Scattered Clouds
2:55 AM 48.2 °F - 48.2 °F 100% 29.71 in 6.2 mi NNW 4.6 mph - N/A   Scattered Clouds
3:55 AM 46.4 °F 45.2 °F 46.4 °F 100% 29.71 in 6.2 mi West 3.5 mph - N/A   Partly Cloudy
4:00 AM 47 °F - 47 °F 100% 29.73 in 6 mi West 3.5 mph - -   Scattered Clouds
4:55 AM 46.4 °F 44.3 °F 46.4 °F 100% 29.71 in 6.2 mi West 4.6 mph - N/A   Partly Cloudy
5:55 AM 44.6 °F - 44.6 °F 100% 29.74 in 6.2 mi West 2.3 mph - N/A   Partly Cloudy
6:55 AM 44.6 °F 42.2 °F 44.6 °F 100% 29.74 in 6.2 mi West 4.6 mph - N/A   Scattered Clouds
7:00 AM 45 °F - 45 °F 100% 29.76 in 6 mi West 4.6 mph - -   Scattered Clouds
7:55 AM 48.2 °F - 48.2 °F 100% 29.77 in 6.2 mi NW 2.3 mph - N/A   Scattered Clouds
8:55 AM 51.8 °F - 51.8 °F 100% 29.77 in 6.2 mi West 3.5 mph - N/A   Mostly Cloudy
9:55 AM 53.6 °F - 53.6 °F 100% 29.80 in 6.2 mi North 2.3 mph - N/A   Mostly Cloudy
10:00 AM 53 °F - 53 °F 100% 29.82 in 6 mi North 2.3 mph - -   Mostly Cloudy
10:55 AM 59.0 °F - 57.2 °F 94% 29.80 in 6.2 mi East 8.1 mph - N/A   Mostly Cloudy
11:55 AM 64.4 °F - 57.2 °F 77% 29.80 in 6.2 mi East 6.9 mph - N/A   Mostly Cloudy
12:55 PM 62.6 °F - 53.6 °F 72% 29.80 in 6.2 mi East 4.6 mph - N/A Rain Light Rain
1:00 PM 63 °F - 54 °F 64% 29.81 in 6 mi East 4.6 mph - - Rain Light Rain
1:55 PM 66.2 °F - 57.2 °F 73% 29.80 in 6.2 mi East 8.1 mph - N/A   Mostly Cloudy
2:55 PM 66.2 °F - 55.4 °F 68% 29.80 in 6.2 mi East 8.1 mph - N/A   Mostly Cloudy
3:55 PM 66.2 °F - 57.2 °F 73% 29.80 in 6.2 mi East 12.7 mph - N/A   Mostly Cloudy
4:00 PM 66 °F - 58 °F 67% 29.81 in 6 mi East 12.7 mph - -   Partly Cloudy
4:55 PM 64.4 °F - 55.4 °F 73% 29.80 in 6.2 mi ESE 8.1 mph - N/A   Mostly Cloudy
5:55 PM 60.8 °F - 53.6 °F 77% 29.80 in 6.2 mi SE 8.1 mph - N/A   Mostly Cloudy
6:55 PM 59.0 °F - 53.6 °F 82% 29.83 in 6.2 mi East 3.5 mph - N/A   Mostly Cloudy
7:00 PM 60 °F - 54 °F 74% 29.84 in 6 mi East 3.5 mph - -   Partly Cloudy
7:55 PM 57.2 °F - 57.2 °F 100% 29.83 in 6.2 mi ENE 4.6 mph - N/A   Mostly Cloudy
8:55 PM 59.0 °F - 59.0 °F 100% 29.86 in 6.2 mi NE 3.5 mph - N/A   Mostly Cloudy
9:55 PM 57.2 °F - 57.2 °F 100% 29.86 in 6.2 mi East 3.5 mph - N/A   Mostly Cloudy
10:00 PM 58 °F - 58 °F 100% 29.87 in 6 mi East 3.5 mph - -   Partly Cloudy
10:55 PM 57.2 °F - 57.2 °F 100% 29.86 in 6.2 mi WNW 3.5 mph - N/A   Mostly Cloudy
11:55 PM 57.2 °F - 57.2 °F 100% 29.86 in 6.2 mi West 5.8 mph - N/A   Mostly Cloudy